DELTA 1 DEB, 21515

Orbit data source: Space-Track

DELTA 1 DEB, 21515 is space debris in SSO originally from a launch on Thu, 12 Jun 1975 UTC launched from the Air Force Western Test Range (AFWTR). Debris objects in space refer to the collection of defunct objects orbiting the Earth. Examples of debris include non-operational satellites, rocket bodies, and fragments generated from explosions, collisions, or faulty payload assembly.

Loading next visibility...
Identifier
21515, 1975-052GL
Orbit
SSO
Country
Flag of USUS
Related business
Manufacturer
Unknown
Mission
Spacecraft
Bus & Motor
Unknown
Mass
Unknown
Launch date (UTC)
1975-06-12 (50 years ago)
Launch vehicle
Unknown
Launch site
Air Force Western Test Range (AFWTR)
Object type
Payload
Rocket body
Debris
Shape & HBR
Unknown shape, 0.1 m
Radar Cross Section
Small (<0.1 m²)

Expand to show TLE details & history
Last TLE update: 5 hours ago

TLE from 5 hours ago
0 DELTA 1 DEB
1 21515U 75052GL  25300.46172233  .00000243  00000-0  79780-3 0  9994
2 21515  99.7317  10.1996 0272603  41.3902  78.8551 12.98698821632477
Epoch: 2025-10-27T11:04Z
TLE epoch observation values (Epoch: 2025-10-27T11:04:52.809Z)
Latitude
55.53302°
Longitude
2.31021°
Altitude
1,241.523 km
Speed
7.256 km/s
True Right ascension
13h 38m 22s
True Declination
55° 22' 57"
Sunlit
Object was in daylight at epoch
Visualization orbit readout
Latitude
Unknown
Longitude
Unknown
Altitude
Unknown
Speed
Unknown
Apparent Right ascension
Unknown
Apparent Declination
Unknown
Sunlit
N/A
Visualization observer readout
Local Sidereal Time
11:06:35
Azimuth
Unknown
Elevation
Unknown
Doppler factor
Unknown
Orbital elements
Apogee altitude
1,472.904 km
Perigee altitude
1,056.219 km
Semi-major axis
7,642.699 km
Eccentricity
0.02726
Inclination
99.7317°
RAAN
10.1996°
Arg. of periapsis
41.3902°
True anomaly
81.93881°
Mean anomaly
78.8551°
Eccentric anomaly
80.39511°
Mean motion
3.24843 °/min
Orbital period
110.82 mins
BSTAR
0.0007978
Loading maneuver chart data...
Computing Atmospheric mass density...
Loading historical data...
Loading historical data...
Loading historical data...
Loading historical data...
Loading historical data...
Loading historical data...
Loading historical data...

Documentation

Showing up to 5 results
|